Pueblo, CO

9:41 AM MST on February 27, 2017 (GMT -0700)
Pueblo Memorial

Weather History for KPUB - May, 2013

Change the Weather History Date:

Thursday, May 9, 2013

  Actual Average Record
Temperature  
Mean Temperature 51 °F 58 °F  
Max Temperature 57 °F 75 °F 95 °F (1916)
Min Temperature 45 °F 42 °F 30 °F (1986)
Degree Days  
Heating Degree Days 14 7  
Month to date heating degree days 145 75  
Since 1 July heating degree days 5658 5515  
Cooling Degree Days 0 0  
Month to date cooling degree days 0 0  
Year to date cooling degree days 1 2  
Growing Degree Days 2 (Base 50)    
Moisture  
Dew Point 43 °F    
Average Humidity 74    
Maximum Humidity 86    
Minimum Humidity 62    
Precipitation  
Precipitation 0.13 in 0.04 in 1.23 in (1913)
Month to date precipitation 0.67 0.45  
Year to date precipitation 1.87 3.43  
Snow  
Snow 0.00 in 0.00 in 1.40 in (1979)
Month to date snowfall 0.6 0.3  
Since 1 July snowfall 24.4 31.6  
Snow Depth 0.00 in    
Sea Level Pressure  
Sea Level Pressure 30.09 in    
Wind  
Wind Speed 10 mph (North)    
Max Wind Speed 18 mph    
Max Gust Speed 23 mph    
Visibility 9 miles    
Events Rain    
T = Trace of Precipitation, MM = Missing Value Source: NWS Daily Summary

Daily Weather History Graph

Daily Weather History Graph

Search for Another Location

Airport or City:

Trip Planner

Search our weather history database for the weather conditions in past years. The results will help you decide how hot, cold, wet, or windy it might be!

Date:

Astronomy

May. 09, 2013 Rise Set
Actual Time 5:52 AM MDT 7:57 PM MDT
Civil Twilight 5:23 AM MDT 8:26 PM MDT
Nautical Twilight 4:47 AM MDT 9:02 PM MDT
Astronomical Twilight 4:08 AM MDT 9:40 PM MDT
Moon 5:37 AM MDT (5/9) 7:54 PM MDT (5/9)
Length of Visible Light 15h 03m
Length of Day
14h 04m
Waning Crescent, 0% of the Moon is Illuminated
May 9
Waning Crescent
May 9
New
May 17
First Quarter
May 24
Full
May 31
Last Quarter

Hourly Weather History & Observations

Time (MDT) Temp. Windchill Dew Point Humidity Pressure Visibility Wind Dir Wind Speed Gust Speed Precip Events Conditions
12:53 AM 48.0 °F - 41.0 °F 77% 30.00 in 10.0 mi NNW 3.5 mph - N/A   Partly Cloudy
1:53 AM 48.0 °F - 41.0 °F 77% 29.98 in 10.0 mi North 9.2 mph - N/A   Clear
2:53 AM 48.0 °F - 41.0 °F 77% 29.97 in 10.0 mi North 10.4 mph - N/A   Clear
3:53 AM 48.9 °F - 41.0 °F 74% 30.00 in 10.0 mi NNW 10.4 mph - N/A   Overcast
4:53 AM 48.0 °F - 41.0 °F 77% 29.99 in 10.0 mi North 10.4 mph - N/A   Overcast
5:53 AM 46.9 °F - 39.9 °F 77% 29.99 in 10.0 mi North 18.4 mph - N/A   Mostly Cloudy
6:53 AM 46.9 °F - 39.9 °F 77% 30.03 in 10.0 mi North 12.7 mph - N/A   Mostly Cloudy
7:53 AM 48.0 °F - 41.0 °F 77% 30.05 in 10.0 mi NNW 16.1 mph - N/A   Overcast
8:53 AM 46.9 °F - 44.1 °F 90% 30.07 in 10.0 mi West 10.4 mph - 0.03 in Rain Light Rain
9:53 AM 48.0 °F - 44.1 °F 86% 30.08 in 10.0 mi West 12.7 mph - 0.00 in Rain Light Rain
10:10 AM 48.2 °F - 44.6 °F 87% 30.13 in 10.0 mi West 12.7 mph - 0.00 in Rain Light Rain
10:38 AM 48.2 °F - 44.6 °F 87% 30.13 in 5.0 mi East 3.5 mph - 0.09 in Rain Light Rain
10:53 AM 48.2 °F - 44.6 °F 87% 30.13 in 5.0 mi ESE 6.9 mph - N/A Rain Light Rain
11:00 AM 48.2 °F - 44.6 °F 87% 30.14 in 10.0 mi ESE 8.1 mph - 0.00 in Rain Light Rain
11:37 AM 48.2 °F - 44.6 °F 87% 30.16 in 10.0 mi ESE 11.5 mph - 0.00 in Rain Light Rain
11:53 AM 48.0 °F - 45.0 °F 89% 30.11 in 10.0 mi ENE 10.4 mph - 0.00 in Rain Light Rain
12:04 PM 48.2 °F - 44.6 °F 87% 30.16 in 5.0 mi ESE 9.2 mph - 0.00 in Rain Light Rain
12:12 PM 48.2 °F - 44.6 °F 87% 30.16 in 3.0 mi ESE 6.9 mph - 0.01 in Rain Light Rain
12:53 PM 51.1 °F - 45.0 °F 80% 30.10 in 10.0 mi ESE 4.6 mph - 0.01 in   Overcast
1:53 PM 53.1 °F - 45.0 °F 74% 30.11 in 10.0 mi North 11.5 mph - 0.00 in   Overcast
2:53 PM 54.0 °F - 43.0 °F 66% 30.09 in 10.0 mi North 6.9 mph - N/A   Mostly Cloudy
3:53 PM 57.0 °F - 45.0 °F 64% 30.07 in 10.0 mi West 13.8 mph - N/A   Scattered Clouds
4:53 PM 52.0 °F - 45.0 °F 77% 30.11 in 10.0 mi NNE 12.7 mph 19.6 mph 0.00 in Rain Light Rain
5:53 PM 53.1 °F - 43.0 °F 69% 30.11 in 10.0 mi NNW 9.2 mph - 0.00 in   Mostly Cloudy
6:53 PM 53.1 °F - 44.1 °F 71% 30.10 in 10.0 mi WNW 10.4 mph - N/A   Clear
7:53 PM 51.1 °F - 42.1 °F 71% 30.13 in 10.0 mi NNW 10.4 mph - N/A   Mostly Cloudy
8:53 PM 48.9 °F - 41.0 °F 74% 30.14 in 10.0 mi NNW 8.1 mph - N/A   Clear
9:53 PM 48.0 °F - 42.1 °F 80% 30.16 in 10.0 mi NNW 4.6 mph - N/A   Scattered Clouds
10:53 PM 46.4 °F 44.3 °F 42.8 °F 87% 30.21 in 10.0 mi NNW 4.6 mph - N/A   Overcast
11:53 PM 46.0 °F 43.9 °F 41.0 °F 83% 30.18 in 10.0 mi West 4.6 mph - N/A   Partly Cloudy